Jaffrey, NH

4:15 AM EDT on April 23, 2017 (GMT -0400)
Jaffrey Airport-Silver Ranch

Weather History for KAFN - May, 2014

Change the Weather History Date:

Thursday, May 1, 2014

  Actual Average Record
Temperature  
Mean Temperature 52 °F -  
Max Temperature 66 °F 60 °F 84 °F (2001)
Min Temperature 37 °F 36 °F 25 °F (2008)
Degree Days  
Heating Degree Days 14    
Growing Degree Days 2 (Base 50)    
Moisture  
Dew Point 44 °F    
Average Humidity 91    
Maximum Humidity 97    
Minimum Humidity 61    
Precipitation  
Precipitation 0.59 in - - ()
Sea Level Pressure  
Sea Level Pressure 29.84 in    
Wind  
Wind Speed 2 mph (NNW)    
Max Wind Speed 9 mph    
Max Gust Speed -    
Visibility 4 miles    
Events Fog , Rain    
Averages and records for this station are not official NWS values.
T = Trace of Precipitation, MM = Missing Value Source: NWS Daily Summary

Daily Weather History Graph

Daily Weather History Graph

Search for Another Location

Airport or City:

Trip Planner

Search our weather history database for the weather conditions in past years. The results will help you decide how hot, cold, wet, or windy it might be!

Date:

Astronomy

May. 01, 2014 Rise Set
Actual Time 5:42 AM EDT 7:48 PM EDT
Civil Twilight 5:11 AM EDT 8:19 PM EDT
Nautical Twilight 4:33 AM EDT 8:57 PM EDT
Astronomical Twilight 3:51 AM EDT 9:39 PM EDT
Moon 7:26 AM EDT (5/1) 10:20 PM EDT (5/1)
Length of Visible Light 15h 08m
Length of Day
14h 06m
Waxing Crescent, 6% of the Moon is Illuminated
May 1
Waxing Crescent
May 6
First Quarter
May 14
Full
May 21
Last Quarter
May 28
New

Hourly Weather History & Observations

Time (EDT) Temp. Windchill Dew Point Humidity Pressure Visibility Wind Dir Wind Speed Gust Speed Precip Events Conditions
12:24 AM 37.9 °F - 36.0 °F 93% 30.15 in 4.0 mi Calm Calm - 0.01 in Rain Light Rain
12:33 AM 37.9 °F - 36.0 °F 93% 30.14 in 3.0 mi Calm Calm - 0.02 in Rain Light Rain
12:48 AM 37.4 °F 34.9 °F 35.6 °F 93% 30.12 in 3.0 mi Variable 3.5 mph - 0.02 in Rain Light Rain
12:52 AM 37.9 °F - 36.0 °F 93% 30.16 in 4.0 mi Calm Calm - 0.02 in Rain Light Rain
1:52 AM 37.9 °F - 36.0 °F 93% 30.12 in 3.0 mi Calm Calm - 0.03 in Rain Rain
2:22 AM 37.9 °F - 36.0 °F 93% 30.05 in 5.0 mi Calm Calm - 0.04 in Rain Light Rain
2:52 AM 37.9 °F 34.4 °F 36.0 °F 93% 30.08 in 2.5 mi NNE 4.6 mph - 0.13 in Rain Heavy Rain
3:03 AM 37.9 °F 34.4 °F 37.0 °F 97% 30.03 in 4.0 mi Variable 4.6 mph - 0.02 in Rain Rain
3:12 AM 37.9 °F 35.5 °F 36.0 °F 93% 30.02 in 5.0 mi Variable 3.5 mph - 0.03 in Rain Light Rain
3:52 AM 37.9 °F 35.5 °F 37.0 °F 97% 30.03 in 4.0 mi Variable 3.5 mph - 0.10 in Rain Light Rain
4:52 AM 37.9 °F 35.5 °F 37.0 °F 97% 30.00 in 4.0 mi Variable 3.5 mph - 0.08 in Rain Light Rain
5:52 AM 39.0 °F - 37.0 °F 93% 29.96 in 3.0 mi Calm Calm - 0.01 in Rain Light Rain
6:15 AM 39.0 °F 36.8 °F 37.0 °F 93% 29.91 in 2.5 mi Variable 3.5 mph - 0.01 in Rain Rain
6:28 AM 39.0 °F 35.7 °F 37.0 °F 93% 29.90 in 1.2 mi Variable 4.6 mph - 0.05 in Rain Rain
6:36 AM 39.0 °F 36.8 °F 37.0 °F 93% 29.90 in 1.0 mi Variable 3.5 mph - 0.08 in Rain Heavy Rain
6:38 AM 39.0 °F 36.8 °F 37.0 °F 93% 29.90 in 1.5 mi Variable 3.5 mph - 0.09 in Rain Rain
6:47 AM 39.2 °F 35.9 °F 37.4 °F 93% 29.90 in 2.0 mi NNE 4.6 mph - 0.12 in Rain Rain
6:52 AM 39.0 °F 36.8 °F 37.0 °F 93% 29.94 in 2.5 mi Variable 3.5 mph - 0.12 in Rain Light Rain
6:58 AM 39.0 °F 34.8 °F 37.0 °F 93% 29.89 in 4.0 mi North 5.8 mph - 0.00 in Rain Light Rain
7:18 AM 39.0 °F 34.8 °F 37.0 °F 93% 29.89 in 2.5 mi Variable 5.8 mph - 0.01 in Rain Light Rain
7:52 AM 39.9 °F 36.7 °F 37.9 °F 93% 29.91 in 2.0 mi Variable 4.6 mph - 0.01 in   Overcast
8:00 AM 39.0 °F 33.4 °F 37.9 °F 96% 29.86 in 1.5 mi NNE 8.1 mph - N/A   Overcast
8:34 AM 39.9 °F 36.7 °F 37.9 °F 93% 29.85 in 1.2 mi NNE 4.6 mph - N/A   Overcast
8:42 AM 39.9 °F 37.8 °F 37.9 °F 93% 29.86 in 1.5 mi Variable 3.5 mph - N/A   Overcast
8:52 AM 39.9 °F 33.9 °F 37.9 °F 93% 29.89 in 1.5 mi NNW 9.2 mph - N/A   Overcast
9:17 AM 39.9 °F 37.8 °F 39.0 °F 97% 29.84 in 1.2 mi Variable 3.5 mph - 0.01 in Rain Light Rain
9:25 AM 41.0 °F 38.0 °F 39.0 °F 93% 29.84 in 2.0 mi North 4.6 mph - 0.01 in Rain Light Rain
9:36 AM 41.0 °F - 39.0 °F 93% 29.83 in 3.0 mi Calm Calm - 0.01 in   Overcast
9:52 AM 41.0 °F 38.0 °F 39.9 °F 96% 29.85 in 2.0 mi Variable 4.6 mph - 0.01 in   Overcast
10:00 AM 42.1 °F 38.4 °F 39.9 °F 92% 29.82 in 1.5 mi Variable 5.8 mph - N/A   Overcast
10:52 AM 43.0 °F 41.3 °F 41.0 °F 93% 29.83 in 1.2 mi NNW 3.5 mph - N/A   Overcast
11:11 AM 44.1 °F - 42.1 °F 93% 29.80 in 1.5 mi Calm Calm - N/A   Overcast
11:25 AM 45.0 °F - 43.0 °F 93% 29.80 in 1.2 mi Calm Calm - N/A   Overcast
11:33 AM 45.0 °F 43.5 °F 43.0 °F 93% 29.80 in 1.0 mi Variable 3.5 mph - N/A   Overcast
11:52 AM 46.0 °F - 44.1 °F 93% 29.82 in 1.0 mi Calm Calm - N/A   Overcast
12:16 PM 46.0 °F - 45.0 °F 96% 29.79 in 1.5 mi Calm Calm - N/A   Overcast
12:37 PM 48.9 °F - 46.9 °F 93% 29.78 in 3.0 mi Calm Calm - N/A   Overcast
12:52 PM 50.0 °F - 48.0 °F 93% 29.81 in 10.0 mi South 5.8 mph - N/A   Overcast
1:15 PM 53.1 °F - 50.0 °F 89% 29.77 in 10.0 mi South 5.8 mph - N/A   Overcast
1:34 PM 55.0 °F - 51.1 °F 86% 29.75 in 10.0 mi South 5.8 mph - N/A   Overcast
2:15 PM 57.9 °F - 53.1 °F 84% 29.74 in 10.0 mi South 5.8 mph - N/A   Overcast
2:52 PM 61.0 °F - 54.0 °F 78% 29.74 in 10.0 mi Variable 5.8 mph - N/A   Scattered Clouds
3:52 PM 64.0 °F - 54.0 °F 70% 29.72 in 10.0 mi Variable 5.8 mph - N/A   Scattered Clouds
4:52 PM 66.9 °F - 53.1 °F 61% 29.70 in 10.0 mi SSW 3.5 mph - N/A   Clear
5:52 PM 66.9 °F - 54.0 °F 63% 29.70 in 10.0 mi SSW 9.2 mph - N/A   Clear
6:52 PM 64.0 °F - 54.0 °F 70% 29.68 in 10.0 mi South 5.8 mph - N/A   Partly Cloudy
7:52 PM 59.0 °F - 55.9 °F 90% 29.70 in 5.0 mi Variable 3.5 mph - 0.02 in Rain Rain
8:52 PM 59.0 °F - 55.0 °F 87% 29.71 in 10.0 mi Variable 4.6 mph - 0.06 in   Overcast
9:52 PM 55.9 °F - 54.0 °F 93% 29.73 in 5.0 mi Calm Calm - N/A   Mostly Cloudy
10:00 PM 55.0 °F - 54.0 °F 96% 29.70 in 1.8 mi Calm Calm - N/A   Mostly Cloudy
10:05 PM 55.0 °F - 53.1 °F 93% 29.71 in 1.2 mi Calm Calm - N/A   Mostly Cloudy
10:12 PM 54.0 °F - 53.1 °F 97% 29.71 in 1.0 mi Calm Calm - N/A   Mostly Cloudy
10:20 PM 54.0 °F - 52.0 °F 93% 29.70 in 1.0 mi Calm Calm - N/A   Mist
10:28 PM 53.1 °F - 51.1 °F 93% 29.71 in 0.8 mi Calm Calm - N/A   Mist
10:52 PM 52.0 °F - 50.0 °F 93% 29.73 in 0.8 mi Calm Calm - N/A   Mist
11:04 PM 51.1 °F - 50.0 °F 96% 29.70 in 1.0 mi Calm Calm - N/A   Mostly Cloudy
11:07 PM 51.1 °F - 50.0 °F 96% 29.70 in 1.5 mi Calm Calm - N/A   Mostly Cloudy
11:18 PM 51.1 °F - 48.9 °F 92% 29.70 in 1.0 mi Calm Calm - N/A   Scattered Clouds
11:25 PM 51.1 °F - 48.9 °F 92% 29.70 in 0.5 mi Calm Calm - N/A Fog Fog
11:36 PM 50.0 °F - 48.0 °F 93% 29.71 in 0.2 mi Calm Calm - N/A Fog Fog
11:52 PM 50.0 °F - 48.9 °F 96% 29.74 in 1.2 mi Calm Calm - N/A   Overcast
11:54 PM 51.1 °F - 48.9 °F 92% 29.71 in 2.5 mi Calm Calm - N/A   Overcast